This is the latest recevied weather packets stored in our database for station/object IW1QQG-13. If no packets are shown the sender has not sent any weather packets the latest 10 day(s).
| Time | Temp. | Humidity | Pressure | Rain* | Wind** | Luminosity | Snow |
|---|---|---|---|---|---|---|---|
| 1777732828 | 20° C | 38% | 1023 hPa | 0 mm | - | - | - |
| 1777732228 | 20.56° C | 37% | 1023.4 hPa | 0 mm | - | - | - |
| 1777731628 | 21.11° C | 38% | 1023.4 hPa | 0 mm | - | - | - |
| 1777731029 | 21.11° C | 37% | 1023.4 hPa | 0 mm | - | 30 W/m² | - |
| 1777730428 | 20.56° C | 38% | 1023.7 hPa | 0 mm | - | - | - |
| 1777729828 | 20° C | 37% | 1024 hPa | 0 mm | - | - | - |
| 1777729228 | 20.56° C | 34% | 1024 hPa | 0 mm | - | - | - |
| 1777728628 | 20.56° C | 32% | 1024 hPa | 0 mm | - | - | - |
| 1777728028 | 20.56° C | 32% | 1024.4 hPa | 0 mm | - | - | - |
| 1777727430 | 20.56° C | 32% | 1024.4 hPa | 0 mm | - | - | - |
| 1777726828 | 20.56° C | 30% | 1024.4 hPa | 0 mm | - | 135 W/m² | - |
| 1777726228 | 20.56° C | 32% | 1024.4 hPa | 0 mm | - | 136 W/m² | - |
| 1777725628 | 21.67° C | 30% | 1024.4 hPa | 0 mm | - | 183 W/m² | - |
| 1777725028 | 21.11° C | 33% | 1024.7 hPa | 0 mm | - | 189 W/m² | - |
| 1777724428 | 21.11° C | 31% | 1024.7 hPa | 0 mm | - | 174 W/m² | - |
| 1777723828 | 21.11° C | 33% | 1024.7 hPa | 0 mm | - | 194 W/m² | - |
| 1777723228 | 21.11° C | 32% | 1025.1 hPa | 0 mm | - | 212 W/m² | - |
| 1777722628 | 21.11° C | 33% | 1025.1 hPa | 0 mm | - | 219 W/m² | - |
| 1777722028 | 21.11° C | 32% | 1025.1 hPa | 0 mm | - | 225 W/m² | - |
| 1777721428 | 21.11° C | 31% | 1025.4 hPa | 0 mm | - | 226 W/m² | - |
| 1777720828 | 21.11° C | 32% | 1025.4 hPa | 0 mm | - | 195 W/m² | - |
| 1777720228 | 20.56° C | 33% | 1025.4 hPa | 0 mm | - | 201 W/m² | - |
| 1777719628 | 21.11° C | 33% | 1025.4 hPa | 0 mm | - | 201 W/m² | - |
| 1777719028 | 21.11° C | 33% | 1025.7 hPa | 0 mm | - | 149 W/m² | - |
| 1777718428 | 21.11° C | 32% | 1025.7 hPa | 0 mm | - | 207 W/m² | - |
* Rain latest hour (hover to see other rain measurements)
** Current wind speed in m/s (hover to see current wind gust speed)